Mount Shasta, CA

5:10 PM PDT on August 30, 2016 (GMT -0700)
Mount Shasta

Weather History for KMHS - August, 2013

Change the Weather History Date:

Monday, August 26, 2013

  Actual Average Record
Temperature  
Mean Temperature 64 °F 65 °F  
Max Temperature 79 °F 83 °F 97 °F (1924)
Min Temperature 49 °F 47 °F 34 °F (1927)
Degree Days  
Heating Degree Days 1 2  
Month to date heating degree days 10 32  
Since 1 June heating degree days 97 207  
Since 1 July heating degree days 10 65  
Cooling Degree Days 0 2  
Month to date cooling degree days 85 81  
Year to date cooling degree days 416 249  
Since 1 June cooling degree days 407 241  
Growing Degree Days 15 (Base 50)    
Moisture  
Dew Point 45 °F    
Average Humidity 54    
Maximum Humidity 96    
Minimum Humidity 27    
Precipitation  
Precipitation 0.00 in 0.01 in 0.57 in (1990)
Month to date precipitation T 0.27  
Year to date precipitation 7.18 27.26  
Sea Level Pressure  
Sea Level Pressure 30.01 in    
Wind  
Wind Speed 1 mph (ENE)    
Max Wind Speed 8 mph    
Max Gust Speed 17 mph    
Visibility 10 miles    
Events      
T = Trace of Precipitation, MM = Missing Value Source: NWS Daily Summary

Daily Weather History Graph

Daily Weather History Graph

Search for Another Location

Airport or City:

Trip Planner

Search our weather history database for the weather conditions in past years. The results will help you decide how hot, cold, wet, or windy it might be!

Date:

Astronomy

Aug. 26, 2013 Rise Set
Actual Time 6:29 AM PDT 7:51 PM PDT
Civil Twilight 6:01 AM PDT 8:19 PM PDT
Nautical Twilight 5:26 AM PDT 8:54 PM PDT
Astronomical Twilight 4:50 AM PDT 9:30 PM PDT
Moon 11:01 PM PDT (8/26) 12:41 PM PDT (8/26)
Length of Visible Light 14h 18m
Length of Day
13h 21m
Waning Gibbous, 65% of the Moon is Illuminated
Aug 26
Waning Gibbous
Aug 28
Last Quarter
Sep 5
New
Sep 12
First Quarter
Sep 19
Full

Hourly Weather History & Observations

Time (PDT) Temp. Dew Point Humidity Pressure Visibility Wind Dir Wind Speed Gust Speed Precip Events Conditions
12:56 AM 53.1 °F 50.0 °F 89% 29.99 in 10.0 mi Calm Calm - N/A   Clear
1:56 AM 52.0 °F 50.0 °F 93% 29.99 in 10.0 mi Calm Calm - N/A   Partly Cloudy
2:56 AM 57.0 °F 48.0 °F 72% 29.99 in 10.0 mi Calm Calm - N/A   Scattered Clouds
3:56 AM 55.9 °F 46.9 °F 72% 29.99 in 10.0 mi Calm Calm - N/A   Mostly Cloudy
4:56 AM 57.0 °F 46.0 °F 67% 29.99 in 10.0 mi Calm Calm - N/A   Mostly Cloudy
5:56 AM 57.0 °F 45.0 °F 64% 29.99 in 10.0 mi Calm Calm - N/A   Overcast
6:56 AM 57.0 °F 43.0 °F 59% 30.01 in 10.0 mi Calm Calm - N/A   Scattered Clouds
7:56 AM 59.0 °F 45.0 °F 60% 30.03 in 10.0 mi Calm Calm - N/A   Mostly Cloudy
8:56 AM 64.0 °F 46.9 °F 54% 30.04 in 10.0 mi Calm Calm - N/A   Overcast
9:56 AM 64.0 °F 44.1 °F 48% 30.06 in 10.0 mi Calm Calm - N/A   Overcast
10:56 AM 69.1 °F 46.0 °F 44% 30.04 in 10.0 mi Variable 3.5 mph - N/A   Clear
11:56 AM 72.0 °F 46.0 °F 40% 30.03 in 10.0 mi Variable 5.8 mph - N/A   Clear
12:56 PM 73.9 °F 45.0 °F 35% 30.02 in 10.0 mi Variable 4.6 mph - N/A   Clear
1:56 PM 75.9 °F 44.1 °F 32% 30.01 in 10.0 mi Variable 5.8 mph - N/A   Clear
2:56 PM 78.1 °F 41.0 °F 27% 29.99 in 10.0 mi Calm Calm - N/A   Clear
3:56 PM 77.0 °F 43.0 °F 30% 29.98 in 10.0 mi Variable 4.6 mph - N/A   Clear
4:56 PM 75.0 °F 43.0 °F 32% 29.98 in 10.0 mi Calm Calm - N/A   Clear
5:56 PM 73.9 °F 45.0 °F 35% 29.98 in 10.0 mi Calm Calm - N/A   Clear
6:56 PM 71.1 °F 45.0 °F 39% 29.98 in 10.0 mi Calm Calm - N/A   Clear
7:56 PM 66.0 °F 45.0 °F 47% 29.99 in 10.0 mi Calm Calm - N/A   Clear
8:56 PM 61.0 °F 45.0 °F 56% 30.01 in 10.0 mi Calm Calm - N/A   Clear
9:56 PM 55.9 °F 44.1 °F 64% 30.03 in 10.0 mi Calm Calm - N/A   Clear
10:56 PM 54.0 °F 42.1 °F 64% 30.02 in 10.0 mi ENE 3.5 mph - N/A   Clear
11:56 PM 51.1 °F 42.1 °F 71% 30.02 in 10.0 mi Calm Calm - N/A   Clear